Regional Weather Roundup
Issued by NWS

Home | Current Version | Previous Version | Text Only | Print | Product List | Glossary Off
Versions: 1 2 3 4 5 6 7 8 9 10 11 12 13 14 15 16 17 18 19 20 21 22 23 24 25 26 27

000
ASUS43 KDMX 221307
RWRIA

WEATHER ROUNDUP FOR IOWA
NATIONAL WEATHER SERVICE DES MOINES IA
800 AM CDT WED OCT 22 2014

NOTE: "FAIR" INDICATES FEW OR NO CLOUDS BELOW 12,000 FEET WITH NO
SIGNIFICANT WEATHER AND/OR OBSTRUCTIONS TO VISIBILITY.

* - THESE STATIONS ARE NOT NWS STATIONS...THUS NOT UNDER NWS
QUALITY CONTROL.  THEY ALSO DO NOT REPORT WEATHER SUCH
AS PRECIPITATION OR FOG.

IAZ001>003-012>014-020>022-031>034-043>046-221400-
   NORTHWEST IOWA

CITY           SKY/WX    TMP DP  RH WIND       PRES   REMARKS
CARROLL *        N/A     48  41  76 SE12G20   30.15S
CHEROKEE *     PTCLDY    48  43  81 SE8       30.09F
DENISON *      PTCLDY    52  43  71 S8        30.10S
LE MARS *      CLEAR     54  45  71 S10       30.05S
ORANGE CITY *  PTCLDY    54  45  71 SE9       30.05F
SHELDON *      PTCLDY    48  43  81 SE18      30.05F
SIOUX CITY     CLEAR     53  44  71 S12       30.05F
SPENCER        PTCLDY    47  40  76 SE16      30.11S
STORM LAKE *   PTCLDY    45  41  87 SE15G21   30.12S
$$

IAZ055>058-069>071-079>083-090>094-221400-
   SOUTHWEST IOWA

CITY           SKY/WX    TMP DP  RH WIND       PRES   REMARKS
ATLANTIC *     MOCLDY    52  43  71 VRB7      30.15R
AUDUBON *      PTCLDY    50  39  66 SE9       30.16S
CLARINDA *     CLOUDY    52  43  71 VRB7G14   30.18S
COUNCIL BLFS * PTCLDY    52  46  82 SE14      30.11S
CRESTON *      CLOUDY    48  41  76 SE13G21   30.19S
HARLAN  *      CLEAR     52  45  76 SE10      30.17R
LAMONI         PTCLDY    46  40  79 SE6       30.22S
RED OAK *      PTCLDY    52  45  76 SE8       30.15S
SHENANDOAH *   CLEAR     52  45  76 SE9       30.14F
$$

IAZ047>049-059>061-072>074-084-221400-
   CENTRAL IOWA

CITY           SKY/WX    TMP DP  RH WIND       PRES   REMARKS
AMES           CLEAR     41  38  89 SE9       30.23S
ANKENY *       PTCLDY    43  41  93 SE9       30.24R
CHARITON *     CLEAR     43  39  87 SE12      30.24S
DES MOINES     PTCLDY    44  39  82 SE9       30.23S
GRINNELL*      CLEAR     37  36  93 E7        30.27S FOG     WCI  32
KNOXVILLE *    CLEAR     41  37  87 SE8       30.24S
MARSHALLTOWN   CLEAR     39  37  92 SE14      30.26R WCI  31
PELLA *        CLEAR     39  37  93 SE7       30.28R WCI  34
PERRY *        CLOUDY    45  41  87 SE10      30.19F
$$

IAZ004>006-015-016-023>025-035-036-221400-
   NORTH CENTRAL IOWA

CITY           SKY/WX    TMP DP  RH WIND       PRES   REMARKS
ALGONA *       CLOUDY    46  39  76 SE18G29   30.16F
CLARION *      PTCLDY    41  41 100 SE14      30.21S
ESTHERVILLE    MOCLDY    44  38  79 S21       30.12F
FORT DODGE *   CLOUDY    46  37  71 SE9G18    30.19S
MASON CITY     PTCLDY    38  37  97 SE15      30.24S WCI  29
FOREST CITY *  MOCLDY    41  41 100 SE13      30.21S
IOWA FALLS *     N/A     41  37  87 SE12G17   30.24F
$$

IAZ007>011-017>019-026>030-037>042-050>054-066-221400-
   NORTHEAST IOWA

CITY           SKY/WX    TMP DP  RH WIND       PRES   REMARKS
CEDAR RAPIDS   CLEAR     34  34 100 E7        30.30R FOG     WCI  28
CHARLES CITY * CLEAR     37  36  93 SE10      30.27S WCI  30
CLINTON *      CLEAR     32  28  86 E3        30.36R
DECORAH *      CLEAR     36  36 100 SE7       30.28S WCI  30
DUBUQUE        PTCLDY    36  34  92 SE5       30.32R WCI  32
MONTICELLO *   CLEAR     32  32 100 CALM      30.32S FOG
OELWEIN *      CLEAR     37  36  93 SE13      30.29S WCI  29
WATERLOO       CLEAR     37  35  92 SE6       30.28R WCI  32
$$

IAZ064-065-067-068-078-221400-
   EAST CENTRAL IOWA

CITY           SKY/WX    TMP DP  RH WIND       PRES   REMARKS
DAVENPORT      CLEAR     35  32  88 E6        30.33R WCI  30
IOWA CITY      CLEAR     36  35  96 SE3       30.33R
MT. PLEASANT * CLEAR     37  37 100 E6        30.30S FOG     WCI  33
MUSCATINE *    CLEAR     34  32  93 CALM      30.33S
QUAD CITIES    CLEAR     32  31  96 CALM      30.34R
$$

IAZ062-063-075>077-085>089-095>099-221400-
   SOUTHEAST IOWA

CITY           SKY/WX    TMP DP  RH WIND       PRES   REMARKS
BURLINGTON     CLEAR     40  37  89 E5        30.31R
FAIRFIELD *      N/A     37  36  93 E6        30.30R WCI  33
FORT MADISON * CLEAR     43  39  87 E5        30.31S
KEOKUK *       CLEAR     39  39 100 E5        30.30R
OSKALOOSA *      N/A     37  36  93 SE6       30.28R FOG     WCI  33
CENTERVILLE *  CLEAR     39  39 100 SE5       30.27S
WASHINGTON *   CLEAR     34  34 100 CALM      30.31R FOG
$$

ABBREVIATIONS USED IN REMARKS
   TC - TEMPERATURES IN CELSIUS
  WCI - WIND CHILL INDEX
   HX - HEAT INDEX
  VSB - VISIBILITY
$$




USA.gov is the U.S. government's official web portal to all federal, state and local government web resources and services.